EW7216 Weather Reports


Display with metric or nautical units.
time (UTC)temp
F
wind
direction
speed
MPH
gust
MPH
rain 1hr
in
rain 24hr
in
rain mn
in
humidity
%
barometer
mb
20260901105106 87 276 3.0 7.0 0.00 0.00 0.00 41 1023.7
20260901104103 87 313 6.0 10.0 0.00 0.00 0.00 41 1023.5
20260901103103 87 339 4.0 9.0 0.00 0.00 0.00 42 1023.8
20260901102104 86 239 2.0 8.0 0.00 0.00 0.00 43 1023.8
20260901101103 87 283 3.0 6.0 0.00 0.00 0.00 44 1023.7
20260901100123 87 320 3.0 8.0 0.00 0.00 0.00 44 1023.7
20260901095123 86 343 4.0 9.0 0.00 0.00 0.00 45 1023.7
20260901094123 86 297 4.0 8.0 0.00 0.00 0.00 46 1023.6
20260901093104 86 42 4.0 9.0 0.00 0.00 0.00 45 1023.8
20260901092104 85 27 2.0 6.0 0.00 0.00 0.00 44 1023.7
20260901091125 85 297 3.0 8.0 0.00 0.00 0.00 44 1023.7
20260901090103 85 313 3.0 6.0 0.00 0.00 0.00 44 1023.6
20260901085103 84 294 3.0 7.0 0.00 0.00 0.00 45 1023.6
20260901084103 84 114 2.0 3.0 0.00 0.00 0.00 47 1023.6
20260901083103 83 106 1.0 2.0 0.00 0.00 0.00 48 1023.5
20260901082104 82 99 1.0 2.0 0.00 0.00 0.00 48 1023.6
20260901081104 82 0.0 0.0 0.00 0.00 0.00 50 1023.4
20260901080104 83 0.0 0.0 0.00 0.00 0.00 50 1023.5
20260901075104 82 128 0.0 2.0 0.00 0.00 0.00 48 1023.4
20260901074103 80 125 1.0 3.0 0.00 0.00 0.00 52 1023.3
20260901073149 80 141 1.0 3.0 0.00 0.00 0.00 51 1023.2
20260901072126 78 137 1.0 3.0 0.00 0.00 0.00 55 1023.1
20260901071103 78 148 0.0 2.0 0.00 0.00 0.00 55 1023.1
20260901070104 77 143 1.0 3.0 0.00 0.00 0.00 56 1023.1
20260901065103 77 123 0.0 1.0 0.00 0.00 0.00 56 1023.1
20260901064103 76 125 0.0 2.0 0.00 0.00 0.00 57 1023.1
20260901063103 77 125 0.0 2.0 0.00 0.00 0.00 56 1023.2
20260901062104 76 132 0.0 1.0 0.00 0.00 0.00 52 1023.2
20260901061103 76 0.0 0.0 0.00 0.00 0.00 52 1023.3
20260901060103 75 155 1.0 3.0 0.00 0.00 0.00 54 1023.2
20260901055144 75 160 0.0 1.0 0.00 0.00 0.00 57 1023.2
20260901054144 75 135 0.0 2.0 0.00 0.00 0.00 57 1023.1
20260901053103 74 0.0 0.0 0.00 0.00 0.00 57 1023.0
20260901052103 74 0.0 0.0 0.00 0.00 0.00 58 1023.1
20260901051103 74 138 1.0 2.0 0.00 0.00 0.00 61 1022.9
20260901045103 74 159 1.0 3.0 0.00 0.00 0.00 56 1022.9
20260901044103 75 151 1.0 2.0 0.00 0.00 0.00 54 1022.7
20260901043103 76 217 1.0 2.0 0.00 0.00 0.00 49 1022.7
20260901042103 77 291 1.0 4.0 0.00 0.00 0.00 48 1022.6
20260901041103 77 349 2.0 4.0 0.00 0.00 0.00 48 1022.7
20260901040103 75 2 1.0 7.0 0.00 0.00 0.00 51 1022.6
20260901035103 73 140 0.0 1.0 0.00 0.00 0.00 66 1022.7
20260901034103 75 146 0.0 3.0 0.00 0.00 0.00 60 1022.7
20260901033104 74 315 3.0 6.0 0.00 0.00 0.00 61 1022.9
20260901032124 72 318 3.0 6.0 0.00 0.00 0.00 72 1022.9
20260901031104 71 243 3.0 4.0 0.00 0.00 0.00 77 1022.9
20260901030104 71 300 2.0 3.0 0.00 0.00 0.00 77 1022.9
20260901025104 71 300 3.0 3.0 0.00 0.00 0.00 79 1023.0
20260901024103 72 281 3.0 6.0 0.00 0.00 0.00 80 1022.9
20260901023103 72 310 3.0 6.0 0.00 0.00 0.00 79 1023.0
20260901022104 72 306 3.0 4.0 0.00 0.00 0.00 78 1022.9
20260901021103 72 346 3.0 6.0 0.00 0.00 0.00 79 1022.8
20260901020104 72 298 3.0 6.0 0.00 0.00 0.00 81 1022.9
20260901015104 72 283 4.0 8.0 0.00 0.00 0.00 81 1022.8
20260901014102 72 306 4.0 7.0 0.00 0.00 0.00 79 1023.0
20260901013103 72 306 5.0 7.0 0.00 0.00 0.00 80 1022.9
20260901012103 72 306 4.0 6.0 0.00 0.00 0.00 80 1022.9
20260901011144 72 310 4.0 4.0 0.00 0.00 0.00 78 1022.9
20260901010103 72 284 3.0 4.0 0.00 0.00 0.00 78 1022.8
20260901005103 73 293 3.0 4.0 0.00 0.00 0.00 78 1022.8
20260901004104 73 338 2.0 2.0 0.00 0.00 0.00 76 1022.5
20260901003103 74 167 2.0 4.0 0.00 0.00 0.00 71 1022.6
20260901002103 74 280 3.0 4.0 0.00 0.00 0.00 71 1022.3
20260901001104 74 296 4.0 7.0 0.00 0.00 0.00 71 1022.5
20260901000103 74 309 4.0 7.0 0.00 0.00 0.00 73 1022.5
20260831235103 74 309 5.0 8.0 0.00 0.00 0.00 76 1022.7
20260831234124 73 329 4.0 7.0 0.00 0.00 0.00 81 1022.6
20260831233123 73 293 4.0 7.0 0.00 0.00 0.00 82 1022.8
20260831232104 73 329 4.0 6.0 0.00 0.00 0.00 82 1022.8
20260831231103 73 311 5.0 9.0 0.00 0.00 0.00 82 1022.7
20260831230103 73 298 4.0 8.0 0.00 0.00 0.00 81 1022.5
20260831225103 73 313 4.0 7.0 0.00 0.00 0.00 81 1022.8
20260831224123 74 299 5.0 8.0 0.00 0.00 0.00 80 1022.6
20260831223103 74 294 5.0 8.0 0.00 0.00 0.00 79 1022.6
20260831222104 74 318 4.0 8.0 0.00 0.00 0.00 78 1022.5
20260831221123 75 321 4.0 8.0 0.00 0.00 0.00 76 1022.4
20260831220104 75 286 4.0 7.0 0.00 0.00 0.00 75 1022.3
20260831215104 75 274 4.0 6.0 0.00 0.00 0.00 75 1022.3
20260831214103 76 284 3.0 7.0 0.00 0.00 0.00 74 1022.2
20260831213123 76 302 3.0 6.0 0.00 0.00 0.00 73 1022.3
20260831212104 76 291 3.0 4.0 0.00 0.00 0.00 72 1022.2
20260831211104 76 270 3.0 4.0 0.00 0.00 0.00 71 1022.2
20260831210104 77 298 3.0 6.0 0.00 0.00 0.00 70 1022.1
20260831205103 77 284 4.0 6.0 0.00 0.00 0.00 69 1022.3
20260831204103 76 284 3.0 6.0 0.00 0.00 0.00 70 1022.0
20260831203103 77 282 3.0 4.0 0.00 0.00 0.00 71 1021.9
20260831202103 77 266 3.0 6.0 0.00 0.00 0.00 70 1021.9
20260831201104 77 311 2.0 4.0 0.00 0.00 0.00 69 1021.9
20260831200123 77 237 1.0 3.0 0.00 0.00 0.00 70 1022.0
20260831195103 77 316 2.0 3.0 0.00 0.00 0.00 71 1021.9
20260831194103 77 283 3.0 4.0 0.00 0.00 0.00 71 1021.9
20260831193103 78 305 3.0 7.0 0.00 0.00 0.00 70 1021.7
20260831192104 78 303 3.0 4.0 0.00 0.00 0.00 70 1021.7
20260831191124 78 301 3.0 6.0 0.00 0.00 0.00 71 1021.7
20260831190104 78 302 4.0 7.0 0.00 0.00 0.00 70 1021.7
20260831185104 78 300 4.0 8.0 0.00 0.00 0.00 70 1021.7
20260831184103 78 331 3.0 7.0 0.00 0.00 0.00 69 1021.5
20260831183103 79 317 5.0 7.0 0.00 0.00 0.00 68 1021.3
20260831182103 79 295 5.0 8.0 0.00 0.00 0.00 67 1021.1
20260831181103 79 316 5.0 9.0 0.00 0.00 0.00 67 1021.3
20260831175103 80 309 5.0 9.0 0.00 0.00 0.00 64 1021.2
20260831174104 81 307 6.0 9.0 0.00 0.00 0.00 63 1021.0
20260831173104 81 320 5.0 8.0 0.00 0.00 0.00 62 1021.1
20260831172123 81 319 6.0 13.0 0.00 0.00 0.00 61 1021.1
20260831171103 82 288 5.0 10.0 0.00 0.00 0.00 58 1020.9
20260831170123 82 315 6.0 10.0 0.00 0.00 0.00 56 1021.1
20260831165103 83 321 5.0 9.0 0.00 0.00 0.00 54 1021.1
20260831164103 83 313 7.0 13.0 0.00 0.00 0.00 53 1021.1
20260831163103 84 347 5.0 10.0 0.00 0.00 0.00 52 1021.2
20260831162103 84 330 6.0 13.0 0.00 0.00 0.00 51 1021.2
20260831161103 85 293 4.0 9.0 0.00 0.00 0.00 49 1021.2
20260831160103 85 165 4.0 10.0 0.00 0.00 0.00 49 1021.1
20260831155105 86 317 5.0 10.0 0.00 0.00 0.00 46 1021.2
20260831154124 86 336 4.0 9.0 0.00 0.00 0.00 45 1021.3
20260831153104 86 341 6.0 14.0 0.00 0.00 0.00 45 1021.1
20260831152103 86 264 4.0 10.0 0.00 0.00 0.00 45 1021.3
20260831151124 87 223 5.0 10.0 0.00 0.00 0.00 45 1021.1
20260831150123 87 350 4.0 10.0 0.00 0.00 0.00 44 1021.1
20260831145123 87 5 4.0 13.0 0.00 0.00 0.00 44 1021.1
20260831144103 88 250 4.0 13.0 0.00 0.00 0.00 44 1021.1
20260831143103 88 324 6.0 14.0 0.00 0.00 0.00 41 1020.8
20260831142124 89 337 7.0 11.0 0.00 0.00 0.00 34 1020.7
20260831141103 89 334 5.0 8.0 0.00 0.00 0.00 33 1020.7
20260831135103 89 307 4.0 9.0 0.00 0.00 0.00 37 1020.7
20260831134104 89 327 6.0 14.0 0.00 0.00 0.00 38 1020.8
20260831133103 89 271 5.0 10.0 0.00 0.00 0.00 38 1020.8
20260831132103 88 79 3.0 13.0 0.00 0.00 0.00 38 1021.0
20260831131104 88 300 3.0 11.0 0.00 0.00 0.00 38 1021.1
20260831125103 87 164 1.0 2.0 0.00 0.00 0.00 43 1021.0
20260831124103 87 278 3.0 8.0 0.00 0.00 0.00 44 1021.1
20260831123103 87 337 6.0 10.0 0.00 0.00 0.00 44 1021.2
20260831122103 87 313 4.0 8.0 0.00 0.00 0.00 45 1021.0
20260831121103 87 7 3.0 7.0 0.00 0.00 0.00 45 1021.2
20260831120106 87 316 5.0 11.0 0.00 0.00 0.00 46 1021.4
20260831115103 87 323 4.0 14.0 0.00 0.00 0.00 48 1021.3
20260831114103 86 232 4.0 7.0 0.00 0.00 0.00 50 1021.4
20260831113103 86 286 3.0 3.0 0.00 0.00 0.00 51 1021.6
20260831112103 86 286 3.0 3.0 0.00 0.00 0.00 51 1021.5
20260831111103 86 359 4.0 8.0 0.00 0.00 0.00 51 1021.5